Home > Weather > Offenbach > Past weeks

Flag for Germany Weather for the Past 2 Weeks in Offenbach, Hesse, Germany

Now
39 °F

Light rain. Broken clouds.


Feels Like: 31 °F
Forecast: 37 / 43 °F
Wind: 15 mph from Southwest

Location: Frankfurt-M-Flughafen Airport

Current Time: Feb 10, 2016 at 3:05:18 PM

Latest Report: Feb 10, 2016 at 2:20 PM


Visibility: N/A

Pressure: 29.42 "Hg

Humidity: 87%

Dew point: 36 °F

Location of OffenbachLocation

Historic Weather in Offenbach — Graph

°F

Offenbach Temperature Yesterday

Maximum temperature yesterday: 48 °F (at 1:50 PM)
Minimum temperature yesterday: 41 °F (at 11:20 PM)
Average temperature yesterday: 45 °F

High & Low Weather Summary for the Past Weeks

 TemperatureHumidityPressure
High57 °F (Feb 1, 3:50 AM)100% (Jan 29, 2:20 AM)30.39 "Hg (Jan 29, 2:20 AM)
Low28 °F (Jan 29, 4:50 AM)54% (Jan 28, 12:50 PM)29.03 "Hg (Feb 9, 5:50 PM)
Average45 °F79%29.97 "Hg
* Reported Jan 26 1:20 PM — Feb 10 1:50 PM, Offenbach, Weather by CustomWeather, © 2016

Note: Actual official high and low records may vary slightly from our data, if they occured in-between our weather recording intervals... More about our weather records

Advertising

Offenbach Weather History for the Previous 24 Hours

 ConditionsComfort  
Time TempWeatherWind HumidityBarometerVisibility
1:50 PM
Wed, Feb 10
39 °FLight rain. Partly sunny.15 mph87%29.42 "HgN/A
1:20 PM37 °FLight rain. Partly sunny.18 mph93%29.42 "HgN/A
12:50 PM39 °FLight rain. Partly sunny.16 mph87%29.42 "HgN/A
12:20 PM39 °FLight rain. Broken clouds.18 mph81%29.42 "HgN/A
11:50 AM39 °FLight rain. Partly sunny.20 mph81%29.42 "HgN/A
11:20 AM39 °FSprinkles. Broken clouds.20 mph81%29.42 "HgN/A
10:50 AM41 °FScattered showers. Partly sunny.20 mph76%29.42 "HgN/A
10:20 AM39 °FLight rain. Partly sunny.17 mph81%29.39 "HgN/A
9:50 AM39 °FLight rain. Partly sunny.16 mph81%29.39 "HgN/A
9:20 AM39 °FLight rain. Partly sunny.14 mph75%29.39 "HgN/A
8:50 AM39 °FPartly sunny.13 mph75%29.39 "HgN/A
8:20 AM37 °FPartly sunny.12 mph81%29.39 "HgN/A
7:50 AM37 °FPassing clouds.16 mph81%29.36 "HgN/A
7:20 AM37 °FPassing clouds.16 mph81%29.36 "HgN/A
6:50 AM37 °FPassing clouds.13 mph87%29.36 "HgN/A
6:20 AM39 °FPassing clouds.12 mph81%29.36 "HgN/A
5:50 AM39 °FSprinkles. Partly cloudy.13 mph81%29.36 "HgN/A
5:20 AM39 °FPassing clouds.14 mph75%29.36 "HgN/A
4:20 AM39 °FPartly cloudy.14 mph75%29.33 "HgN/A
3:50 AM39 °FPartly cloudy.12 mph75%29.33 "HgN/A
3:20 AM37 °FPartly cloudy.9 mph87%29.33 "HgN/A
2:20 AM39 °FPassing clouds.12 mph81%29.36 "HgN/A
1:20 AM39 °FPassing clouds.14 mph81%29.33 "HgN/A
12:20 AM41 °FPartly cloudy.14 mph76%29.33 "HgN/A
11:50 PM
Tue, Feb 9
41 °FPartly cloudy.16 mph76%29.30 "HgN/A
11:20 PM41 °FPartly cloudy.16 mph76%29.30 "HgN/A
10:20 PM43 °FPassing clouds.17 mph66%29.24 "HgN/A
9:50 PM43 °FPassing clouds.15 mph71%29.24 "HgN/A
9:20 PM45 °FPassing clouds.15 mph66%29.21 "HgN/A
8:50 PM45 °FPartly cloudy.22 mph66%29.18 "HgN/A
8:20 PM45 °FPartly cloudy.26 mph71%29.15 "HgN/A
7:50 PM48 °FPassing clouds.32 mph62%29.09 "HgN/A
7:20 PM48 °FPassing clouds.28 mph66%29.06 "HgN/A
6:50 PM48 °FPartly cloudy.17 mph82%29.06 "HgN/A
6:20 PM46 °FPartly cloudy.12 mph87%29.03 "HgN/A
5:50 PM46 °FPartly cloudy.15 mph82%29.03 "HgN/A
4:50 PM46 °FRain showers. Broken clouds.9 mph93%29.06 "HgN/A
4:20 PM48 °FSprinkles. Partly sunny.10 mph87%29.06 "HgN/A
3:20 PM48 °FSprinkles. Broken clouds.14 mph94%29.09 "Hg6 mi
Weather by CustomWeather, © 2016

See weather overviewHow to use our weather pages